Location: Adrasan
(36.3319°N, 30.4314°E)
Time: 07:36:02
(UTC+00:00)

DELTA 2 R/B (1) - Pass Details

Date: 09 December 2023
Orbit: 788 x 802 km, 39.6° (Epoch: 29 February)

Event Time Altitude Azimuth Distance (km) Brightness Sun altitude
Rises 15:19:46 0° 226° (SW) 3,289 8.3 -7.5°
Reaches altitude 10° 15:22:21 10° 220° (SW) 2,359 7.2 -8.0°
Maximum altitude 15:27:36 43° 150° (SSE) 1,098 4.3 -9.0°
Enters shadow 15:32:29 12° 81° (E) 2,236 5.3 -9.9°
